Regional Weather Roundup
Issued by NWS

Home | Current Version | Previous Version | Graphics & Text | Print | Product List | Glossary On
Versions: 1 2 3 4 5 6 7 8 9 10 11 12 13 14 15 16 17 18 19 20 21 22 23 24 25 26 27 28 29 30 31 32 33 34 35 36 37 38 39 40 41 42 43 44 45 46 47 48 49 50
000
ASUS43 KOAX 032202
RWRNE

WEATHER ROUNDUP FOR NEBRASKA
NATIONAL WEATHER SERVICE OMAHA NE
400 PM CST SAT DEC 03 2016

NOTES: SATELLITE DATA IS BEING USED TO AUGMENT CLOUD COVER ABOVE
       12000 FEET.
       "FAIR" INDICATES FEW OR NO CLOUDS BELOW 12,000 FEET WITH NO
       SIGNIFICANT WEATHER AND/OR OBSTRUCTIONS TO VISIBILITY.

  * THESE STATIONS DO NOT REPORT WEATHER SUCH AS RAIN...SNOW OR FOG.

NEZ001>004-019>022-054>056-032300-
NEBRASKA PANHANDLE

CITY           SKY/WX    TMP DP  RH WIND       PRES   REMARKS
SCOTTSBLUFF    MOSUNNY   42  13  30 W21G31    29.95R
ALLIANCE       CLOUDY    43  10  26 NW14      29.92R
CHADRON        CLOUDY    41  14  33 W10       29.93R
KIMBALL        PTSUNNY   39  16  39 NW21G29   29.95R WCI  29
SIDNEY         SUNNY     43  11  27 NW17      29.95R
$$

NEZ057>060-069>072-079>082-032300-
SOUTHWEST NEBRASKA

CITY           SKY/WX    TMP DP  RH WIND       PRES   REMARKS
NORTH PLATTE   SUNNY     44  27  51 S15       29.97F
IMPERIAL       SUNNY     44  24  45 S10       29.96F
LEXINGTON      CLOUDY    36  32  85 S12       30.04S WCI  27
MCCOOK         CLOUDY    38  31  76 S9        30.01F WCI  31
OGALLALA       CLOUDY    46  15  28 SW8       29.95S
$$

NEZ005>010-023>029-035>040-094-032300-
NORTH CENTRAL NEBRASKA

CITY           SKY/WX    TMP DP  RH WIND       PRES   REMARKS
VALENTINE      CLEAR     42  12  29 W8        29.89F
AINSWORTH      CLEAR     46  19  33 SW16      29.91S
BROKEN BOW     MOCLDY    38  31  76 S18G28    29.99F WCI  28
O`NEILL        MOCLDY    39  32  77 S16G25    30.01S WCI  30
ORD            CLOUDY    37  30  75 S14G24    30.03F WCI  28
THEDFORD       CLEAR     47  15  27 W15       29.93F
$$

NEZ041-046>049-061>064-073>077-083>087-032300-
SOUTH CENTRAL NEBRASKA

CITY           SKY/WX    TMP DP  RH WIND       PRES   REMARKS
GRAND ISLAND   LGT SNOW  33  33 100 S6        30.10F FOG     WCI  28
AURORA         LGT SNOW  32  32 100 S6        30.11S WCI  27
HASTINGS       LGT SNOW  33  32  96 SE6       30.10S FOG     WCI  28
HEBRON         LGT SNOW  32  32 100 E6        30.12F VSB 3/4 WCI  26
HOLDREGE       CLOUDY    33  32  97 S8        30.06F WCI  25
KEARNEY *      CLOUDY    34  28  80 S8        30.07F WCI  27
YORK           CLOUDY    32  32 100 SE7       30.12F WCI  26
$$

NEZ011>018-030>034-042>045-032300-
NORTHEAST NEBRASKA

CITY           SKY/WX    TMP DP  RH WIND       PRES   REMARKS
NORFOLK        CLOUDY    33  31  92 SE13      30.10F WCI  24
ALBION         CLOUDY    34  33  93 S13       30.08F FOG     WCI  25
BLAIR          LGT SNOW  33  32  97 SE7       30.17S WCI  27
FREMONT        LGT SNOW  32  32 100 SE6       30.16F VSB 1   WCI  27
TEKAMAH        LGT SNOW  33  31  92 SE12      30.18F VSB 1   WCI  24
WAYNE          CLOUDY    33  33  98 S14       30.12F FOG     WCI  24
$$

NEZ050>053-065>068-078-088>093-032300-
SOUTHEAST NEBRASKA

CITY           SKY/WX    TMP DP  RH WIND       PRES   REMARKS
LINCOLN        LGT SNOW  33  32  96 SE8       30.17F VSB 1   WCI  26
OMAHA EPPLEY   LGT SNOW  33  29  85 SE6       30.19F VSB 1   WCI  28
BEATRICE       LGT SNOW  33  33  99 E7        30.13F WCI  27
FALLS CITY     CLOUDY    39  33  79 E5        30.15F
NEBRASKA CITY  LGT SNOW  32  32  99 NE7       30.16F VSB 3/4 WCI  26
PLATTSMOUTH    LGT SNOW  33  31  94 E3        30.18F VSB 3/4
$$

NEZ044-045-051>053-067-032300-
OMAHA AREA

CITY           SKY/WX    TMP DP  RH WIND       PRES   REMARKS
OMAHA EPPLEY   LGT SNOW  33  29  85 SE6       30.19F VSB 1   WCI  28
BLAIR          LGT SNOW  33  32  97 SE7       30.17S WCI  27
FREMONT        LGT SNOW  32  32 100 SE6       30.16F VSB 1   WCI  27
MILLARD        LGT SNOW  33  32  95 SE3       30.18F
OFFUTT AFB     LGT SNOW  32  32 100 E7        30.18F FOG     WCI  26
PLATTSMOUTH    LGT SNOW  33  31  94 E3        30.18F VSB 3/4
WAHOO          LGT SNOW  32  32  99 SE8       30.16F VSB 1   WCI  25
$$




USA.gov is the U.S. government's official web portal to all federal, state and local government web resources and services.